Regional Weather Roundup
Issued by NWS Newport/Morehead, NC

Current Version | Previous Version | Graphics & Text | Print | Product List | Glossary Off
Versions: 1 2 3 4 5 6 7 8 9 10 11 12 13 14 15 16 17 18 19 20 21 22 23 24 25 26 27 28 29 30 31 32 33 34 35 36 37 38 39 40 41 42 43 44 45 46 47 48 49 50

000
ASUS42 KMHX 262225
RWRMHX
WEATHER ROUNDUP FOR EASTERN NORTH CAROLINA
NATIONAL WEATHER SERVICE NEWPORT/MOREHEAD CITY NC
500 PM EST SUN FEB 26 2017

NOTE: "FAIR" INDICATES FEW OR NO CLOUDS BELOW 12,000 FEET
WITH NO SIGNIFICANT WEATHER AND/OR OBSTRUCTIONS TO VISIBILITY

NCZ015>017-031-032-045>047-102-103-262300-
NORTH COAST

CITY           SKY/WX    TMP DP  RH WIND       PRES   REMARKS
EDENTON        SUNNY     56  23  28 CALM      30.19R
ELIZABETH CITY SUNNY     54  23  30 W9        30.18R
KITTY HAWK     NOT AVBL
MANTEO         SUNNY     46  34  62 SE7       30.21R

$$

NCZ045>047-081-094-103-104-262300-
CENTRAL COAST

CITY           SKY/WX    TMP DP  RH WIND       PRES   REMARKS
FRISCO         SUNNY     54  32  43 VRB3      30.20R

$$

NCZ095-097-098-100-101-262300-
SOUTHERN COAST

CITY           SKY/WX    TMP DP  RH WIND       PRES   REMARKS
BEAUFORT       SUNNY     57  31  37 SW10      30.19R
CEDAR ISLAND   NOT AVBL
JACKSONVILLE   SUNNY     58  18  21 W9        30.19R
PINEY ISLAND   CLEAR    N/A N/A N/A SE5       30.19R
WILMINGTON     SUNNY     61  19  19 CALM      30.19R


$$

NCZ011>013-027>030-043-044-078>080-089-090>093-098-262300-
COASTAL PLAIN

CITY           SKY/WX    TMP DP  RH WIND       PRES   REMARKS
AHOSKIE          N/A     51  21  30 NW3       30.20R
CLINTON        SUNNY     58  22  24 SW3       30.21R
ELIZABETHTOWN  SUNNY     58  21  23 W6        30.21R
GOLDSBORO      SUNNY     57  14  17 W8        30.17R
GREENVILLE     SUNNY     55  18  22 W7        30.21R
HAVELOCK       SUNNY     58  19  22 NW8       30.20
KENANSVILLE    SUNNY     57  18  21 W5        30.20R
KINSTON        SUNNY     57  14  18 W5        30.20R
NEW BERN       SUNNY     57  19  22 W8        30.20R
RICHLANDS      SUNNY     58  21  24 VRB5      30.20R
ROCKY MOUNT    SUNNY     54  18  24 W7        30.19R
WASHINGTON     SUNNY     56  19  23 W5        30.19R
WHITEVILLE     SUNNY     58  21  23 SW3       30.21R

$$

AMZ130-135-150-152-154-156-158-170-250-252-270-ANZ085-086-088-633-658-670-262300-
MARINE OBSERVATIONS

STATION/POSITION TIME  TEMP    WIND        PRES    WAVE   SWELL
                       AIR SEA DIR/SP/G            HT/PER HT/PER
                 (UTC) (F)     (DEG/KT/KT) (MB)    (FT/S) (FT/S)
CHESAPEAKE LIGHT NOT AVBL
64 E VA BEACH    2150   44 51  350/  6/  8 1022.4    4/10   3/10
DUCK             2200   46 49   80/  7/  9 1022.0
2 E DUCK         2200      50                N/A     4/11   2/11
OREGON INLET     2200           90/  4/  7 1022.9
13E OREGON INLT  NOT AVBL
HATTERAS CG      2200   53 61  260/  3/  5 1022.5
DIAMOND BUOY     2150   54 72  270/  8/ 12 1022.8    4/ 9   3/ 9
CAPE LOOKOUT     2200   55     220/  6/  7 1022.4
BEAUFORT LAB     2200   58 62  240/  4/ 11 1021.4
30 SE NEW RVR IN 2208   55     250/  6/  8 1023.0
30 SE NEW RVR IN 2213      65                N/A     3/ 9   2/11
27 SE WRIGHTSVLE 2208   55 62  220/  6/ 10 1022.0
5 SE WRIGHTSVLE  2208   55 59  190/ 10/ 16 1022.5
225 S CAPE HAT   2150   67 71  360/ 12/ 14 1021.3    6/ 7   7/ 7
41 SE CHARLESTON 2150   59 70  180/  4/  6 1023.0    3/ 9   3/ 9

$$



USA.gov is the U.S. government's official web portal to all federal, state and local government web resources and services.